This demonstration page uses our WeatherBlox Daily Observations layout. Learn more.

Left ArrowRight Arrow

41.55636, -103.73856

Hourly Observations for December 15, 2017

Temp ( °F °C ) Dew Point ( °F °C ) Humidity (%) Winds ( mph kmh ) Pressure ( in mb ) Visibility ( mi km ) Precip ( " mm )
12:53 am 00:53 Clear 10 -12.2 7 -13.9 87 87 N 7 11 30.24 1024 10 16 N/A
1:53 am 01:53 Clear 10 -12.2 7 -13.9 87 87 WNW 6 9 30.22 1023 10 16 N/A
2:53 am 02:53 Clear 12 -11.1 9 -12.8 87 87 WNW 7 11 30.19 1022 10 16 N/A
3:53 am 03:53 Clear 11 -11.7 8 -13.3 88 88 NW 7 11 30.16 1022 10 16 N/A
4:53 am 04:53 Clear 11 -11.7 8 -13.3 88 88 WNW 7 11 30.15 1021 10 16 N/A
5:53 am 05:53 Clear 11 -11.7 7 -13.9 84 84 NW 6 9 30.15 1021 10 16 N/A
6:53 am 06:53 Clear 15 -9.4 11 -11.7 84 84 WNW 7 11 30.11 1020 10 16 N/A
7:53 am 07:53 Sunny 20 -6.7 14 -10 78 78 NW 6 9 30.10 1019 10 16 N/A
8:53 am 08:53 Sunny 29 -1.7 22 -5.6 75 75 N N/A 30.09 1019 10 16 N/A
9:53 am 09:53 Sunny 41 5 20 -6.7 43 43 NW 10 17 30.04 1017 10 16 N/A
10:53 am 10:53 Sunny 51 10.6 18 -7.8 27 27 WNW 10 17 29.99 1016 10 16 N/A
11:53 am 11:53 Sunny 54 12.2 14 -10 20 20 W 20 31 29.94 1014 10 16 N/A
12:53 pm 12:53 Sunny 57 13.9 14 -10 18 18 WNW 18 30 29.91 1013 10 16 N/A
1:53 pm 13:53 Sunny 57 13.9 14 -10 18 18 WNW 17 28 29.88 1012 10 16 N/A
2:53 pm 14:53 Sunny 57 13.9 13 -10.6 17 17 W 18 30 29.86 1011 10 16 N/A
3:53 pm 15:53 Sunny 55 12.8 13 -10.6 19 19 W 16 26 29.85 1011 10 16 N/A
4:53 pm 16:53 Clear 52 11.1 11 -11.7 19 19 W 13 20 29.85 1011 10 16 N/A
5:53 pm 17:53 Clear 48 8.9 11 -11.7 22 22 WNW 12 19 29.86 1011 10 16 N/A
6:53 pm 18:53 Clear 49 9.4 10 -12.2 21 21 WNW 17 28 29.84 1011 10 16 N/A
7:53 pm 19:53 Clear 50 10 10 -12.2 20 20 W 16 26 29.81 1010 10 16 N/A
8:53 pm 20:53 Clear 48 8.9 8 -13.3 19 19 WNW 12 19 29.78 1008 10 16 N/A
9:53 pm 21:53 Clear 45 7.2 8 -13.3 22 22 WNW 9 15 29.75 1007 10 16 N/A
10:53 pm 22:53 Clear 43 6.1 7 -13.9 22 22 WNW 9 15 29.74 1007 10 16 N/A
11:53 pm 23:53 Clear 37 2.8 8 -13.3 30 30 NNW 7 11 29.73 1007 10 16 N/A

Powered by AerisWeather